Weather in Dzhambichi

Russia / Republic of Adygea     45°05′06″N   39°51′39″E
temp.,
°C
wind,
m/s
gust,
m/s
humid.,
%
clouds,
%
prec.,
mm/h
press.,
hPa
HPBL,
m
25 february, thu
thu2500:00−10ene488525 0.0 1036260
03:00−10ne358821 0.0 1035146
06:00−13ene12909 0.0 103525
09:00−10nne12846 0.0 1035110
12:00−5sse017631 0.0 1034202
15:00−2wnw227750 0.0 1032280
18:00−3w128888 0.0 103229
21:00−4w228987 0.0 103225
26 february, fri
fri2600:000w3109195 0.0 1032239
03:00+1w499189 0.0 1031229
06:00+2wsw5139390 0.0 1030396
09:00+2sw5149595 0.0 1029424
12:00+4sw61493100 0.1 1029450
15:00+4sw61589100 0.1 1027454
18:00+3wsw51488100 0.0 1026422
21:00+3wsw5128698 0.0 1026350
27 february, sat
sat2700:00+2wsw5148657 0.0 1024358
03:00+2sw6168650 0.0 1023401
06:00+3sw6158349 0.0 1021406
09:00+4wsw4148475 0.0 1021475
12:00+7wsw61380100 0.0 1019617
15:00+8wsw7137897 0.0 1017715
18:00+5wsw5128282 0.0 1016279
21:00+4wsw4148180 0.0 1016402
28 february, sun
sun2800:00+4wsw5158098 0.3 1015495
03:00+5wsw6148599 2.0 1015561
06:00+4nw3698100 3.9 1015266
09:00+2wnw3598100 6.1 1017295
12:00+4w4590100 1.4 1017549
15:00+6wnw4676100 1.6 1018953
18:00+4wnw368298 0.2 1019216
21:00+1wnw348684 0.3 102196
1 march, mon
mon100:00+2w248783 0.0 1022138
03:00+1wsw239291 0.1 102384
06:00+1wsw369897 0.2 1024256
09:00+2wsw239599 0.3 1024278
12:00+5w346998 0.3 10251008
15:00+5nnw457699 0.8 1025768
18:00+3n248190 0.1 1026138
21:00+1nne358792 0.1 1028198